Regional Weather Roundup
Issued by NWS

Home | Current Version | Previous Version | Graphics & Text | Print | Product List | Glossary On
Versions: 1 2 3 4 5 6 7 8 9 10 11 12 13 14 15 16 17 18 19 20 21 22 23 24 25 26 27 28 29 30 31 32 33 34 35 36 37 38 39 40 41 42 43 44 45 46 47 48 49 50
000
ASUS43 KDMX 210406
RWRIA

WEATHER ROUNDUP FOR IOWA
NATIONAL WEATHER SERVICE DES MOINES IA
1000 PM CST FRI JAN 20 2017

NOTE: "FAIR" INDICATES FEW OR NO CLOUDS BELOW 12,000 FEET WITH NO
SIGNIFICANT WEATHER AND/OR OBSTRUCTIONS TO VISIBILITY.

* - THESE STATIONS ARE NOT NWS STATIONS...THUS NOT UNDER NWS
QUALITY CONTROL.  THEY ALSO DO NOT REPORT WEATHER SUCH
AS PRECIPITATION OR FOG.

IAZ001>003-012>014-020>022-031>034-043>046-210500-
   NORTHWEST IOWA

CITY           SKY/WX    TMP DP  RH WIND       PRES   REMARKS
CARROLL *      CLOUDY    37  36  93 SE8       29.46S FOG     WCI  31
CHEROKEE *     LGT RAIN  37  37 100 E3        29.46S
DENISON *      CLOUDY    39  39 100 SE6       29.42F FOG     WCI  35
LE MARS *      CLOUDY    39  37  93 SE7       29.44F WCI  34
ORANGE CITY *  FOG       36  36 100 SE6       29.44S VSB 1   WCI  31
SHELDON *      CLOUDY    36  36 100 SE10      29.43F FOG     WCI  28
SIOUX CITY     LGT RAIN  40  39  97 SE7       29.43F
SPENCER        FOG       36  35  96 E8        29.47F VSB 3/4 WCI  30
STORM LAKE *   FOG       36  36 100 SE9       29.46S VSB 1/4 WCI  29
$$

IAZ055>058-069>071-079>083-090>094-210500-
   SOUTHWEST IOWA

CITY           SKY/WX    TMP DP  RH WIND       PRES   REMARKS
ATLANTIC *     FOG       41  39  93 CALM      29.45S VSB 1/4
AUDUBON *      FOG       39  37  93 E6        29.45F VSB 1/4 WCI  35
CLARINDA *     FOG       43  43 100 CALM      29.45F VSB 1/2
COUNCIL BLFS * FOG       39  39 100 SE6       29.43F VSB 1/4 WCI  35
CRESTON *      LGT RAIN  41  41 100 E6        29.45F
HARLAN  *      FOG       39  39 100 SE3       29.48S VSB 1/2
LAMONI         FOG       45  44  97 E5        29.44F VSB 1/4
RED OAK *      CLOUDY    41  41 100 CALM      29.44F FOG
SHENANDOAH *   LGT RAIN  43  41  93 E3        29.44F
$$

IAZ047>049-059>061-072>074-084-210500-
   CENTRAL IOWA

CITY           SKY/WX    TMP DP  RH WIND       PRES   REMARKS
AMES           LGT RAIN  38  38 100 E5        29.49F VSB 1   WCI  34
ANKENY *       FOG       39  39 100 SE7       29.49F VSB 1   WCI  34
BOONE *        LGT RAIN  37  37 100 E9        29.47F VSB 1/4 WCI  31
CHARITON *     FOG       41  41 100 SE9       29.47F VSB<1/4
DES MOINES     FOG       41  40  96 E7        29.47F VSB 1/2
GRINNELL*      DRZL/FOG  37  37  99 E8        29.51F VSB 1/2 WCI  31
KNOXVILLE *    FOG       41  41 100 E8        29.47F VSB<1/4
MARSHALLTOWN   LGT RAIN  37  37 100 E10       29.50F VSB 1/4 WCI  30
NEWTON *       CLOUDY    39  39 100 E12       29.49F FOG     WCI  32
PELLA *        FOG       40  40  99 SE8       29.51S VSB 3/4 WCI  35
PERRY *        FOG       38  38  98 E7        29.47F VSB 1   WCI  33
$$

IAZ004>006-015-016-023>025-035-036-210500-
   NORTH CENTRAL IOWA

CITY           SKY/WX    TMP DP  RH WIND       PRES   REMARKS
ALGONA *       FOG       36  36 100 SE9       29.49F VSB 1/4 WCI  29
CLARION *      FOG       36  36 100 E10       29.49F VSB 1/4 WCI  28
ESTHERVILLE    FOG       33  33 100 SE10      29.48S VSB 1/2 WCI  25
FORT DODGE *   CLOUDY    36  34  93 E7        29.49F VSB 3/4 WCI  30
MASON CITY     FOG       34  34 100 SE12      29.53F VSB 1/2 WCI  25
FOREST CITY *  FOG       34  34 100 SE7       29.51F VSB 1/4 WCI  28
WEBSTER CITY * FOG       36 N/A N/A E8        29.47F VSB 1/4 WCI  29
IOWA FALLS *   SNOW      37  36  97 E5        29.52F VSB 1/4 WCI  33
$$

IAZ007>011-017>019-026>030-037>042-050>054-066-210500-
   NORTHEAST IOWA

CITY           SKY/WX    TMP DP  RH WIND       PRES   REMARKS
CEDAR RAPIDS   LGT RAIN  38  38 100 E9        29.53F VSB 1/4 WCI  31
CHARLES CITY * FOG       36  36 100 SE8       29.55S VSB<1/4 WCI  29
CLINTON *      LGT RAIN  39  39 100 E8        29.58F VSB 1/4 WCI  33
DECORAH *      FOG       36  36 100 SE9       29.55F VSB 1/4 WCI  29
DUBUQUE        FOG       38  37  97 E5        29.58F VSB 1/4 WCI  34
MONTICELLO *   CLOUDY    39  39 100 E5        29.56F FOG
OELWEIN *      FOG       36  36 100 E10       29.55F VSB 1/4 WCI  28
WATERLOO       FOG       37  36  96 E8        29.53F VSB 1/4 WCI  31
$$

IAZ064-065-067-068-078-210500-
   EAST CENTRAL IOWA

CITY           SKY/WX    TMP DP  RH WIND       PRES   REMARKS
DAVENPORT      FOG       41  41 100 E9        29.56F VSB 1/4
IOWA CITY      CLOUDY    43  42  97 NE7       29.55F FOG
MUSCATINE *    FOG       43  43 100 E5        29.56S VSB 1/4
QUAD CITIES    FOG       42  40  92 E9        29.56F VSB 1/2
$$

IAZ062-063-075>077-085>089-095>099-210500-
   SOUTHEAST IOWA

CITY           SKY/WX    TMP DP  RH WIND       PRES   REMARKS
BURLINGTON     FOG       45  45 100 SE6       29.54S VSB 1/4
FAIRFIELD *    FOG       43  43 100 SE8       29.52S VSB<1/4
FORT MADISON * FOG       46  46 100 SE7       29.54F VSB 1
KEOKUK *       CLOUDY    46 N/A N/A SE7       29.52F FOG
OSKALOOSA *    FOG       41  40  98 E10       29.50F VSB 1/4
OTTUMWA        FOG       42  40  92 E9        29.50F VSB 1/4
WASHINGTON *   FOG       41  41 100 SE7       29.55S VSB<1/4
$$

ABBREVIATIONS USED IN REMARKS
   TC - TEMPERATURES IN CELSIUS
  WCI - WIND CHILL INDEX
   HX - HEAT INDEX
  VSB - VISIBILITY
$$





USA.gov is the U.S. government's official web portal to all federal, state and local government web resources and services.